Location: ??????????
(54.8537°N, 38.8755°E)
Time: 02:01:28
(UTC+00:00)

Transit 2A Rocket - Pass Details

Date: 20 September 2024
Orbit: 583 x 908 km, 66.7° (Epoch: 15 October)

Event Time Altitude Azimuth Distance (km) Brightness Sun altitude
Exits shadow 01:02:06 - 303° (WNW) 3,437 8.1 -17.9°
Reaches altitude 10° 01:04:43 10° 314° (NW) 2,593 7.6 -17.6°
Maximum altitude 01:09:54 29° 12° (NNE) 1,586 7.0 -16.9°
Drops below altitude 10° 01:14:53 10° 72° (ENE) 2,482 9.0 -16.3°
Sets 01:17:38 0° 83° (E) 3,367 9.7 -15.9°
